EN

Hourly Weather Laczany

Today, 23 July, Friday

Time Temperature Precipitation Wind Pressure Humidity
00:00 +16°C° 0 mm 1 mps 745 mmHg 79%
01:00 +16°C° 0 mm 1 mps 745 mmHg 80%
02:00 +16°C° 0 mm 1 mps 745 mmHg 80%
03:00 +16°C° 0 mm 1 mps 744 mmHg 81%
04:00 +15°C° 0 mm 1 mps 744 mmHg 82%
05:00 +16°C° 0 mm 0 mps 744 mmHg 79%
06:00 +17°C° 0 mm 0 mps 744 mmHg 76%
07:00 +18°C° 0 mm 0 mps 744 mmHg 72%
08:00 +19°C° 0 mm 0 mps 744 mmHg 67%
09:00 +23°C° 0 mm 1 mps 744 mmHg 63%
10:00 +24°C° 0 mm 2 mps 744 mmHg 58%
11:00 +24°C° 0 mm 2 mps 744 mmHg 56%
12:00 +25°C° 0 mm 2 mps 744 mmHg 55%
13:00 +25°C° 0 mm 2 mps 743 mmHg 53%
14:00 +25°C° 0 mm 2 mps 743 mmHg 53%
15:00 +25°C° 0 mm 1 mps 743 mmHg 53%
16:00 +25°C° 0 mm 1 mps 743 mmHg 54%
17:00 +24°C° 0 mm 1 mps 743 mmHg 60%
18:00 +23°C° 0 mm 1 mps 743 mmHg 66%
19:00 +22°C° 0 mm 1 mps 743 mmHg 72%
20:00 +21°C° 0 mm 1 mps 743 mmHg 75%
21:00 +20°C° 0 mm 1 mps 743 mmHg 78%
22:00 +18°C° 0 mm 1 mps 743 mmHg 81%
23:00 +18°C° 0 mm 1 mps 743 mmHg 82%

Tomorrow, 24 July, Saturday

Time Temperature Precipitation Wind Pressure Humidity
00:00 +18°C° 0 mm 1 mps 743 mmHg 84%
01:00 +16°C° 0 mm 1 mps 743 mmHg 85%
02:00 +16°C° 0 mm 1 mps 743 mmHg 86%
03:00 +16°C° 0 mm 1 mps 743 mmHg 86%
04:00 +15°C° 0 mm 1 mps 742 mmHg 87%
05:00 +18°C° 0 mm 1 mps 743 mmHg 82%
06:00 +20°C° 0 mm 1 mps 743 mmHg 77%
07:00 +21°C° 0 mm 1 mps 743 mmHg 71%
08:00 +23°C° 0 mm 1 mps 743 mmHg 66%
09:00 +25°C° 0 mm 2 mps 743 mmHg 60%
10:00 +26°C° 0 mm 2 mps 742 mmHg 54%
11:00 +27°C° 0 mm 2 mps 742 mmHg 51%
12:00 +28°C° 0 mm 1 mps 742 mmHg 48%
13:00 +28°C° 0 mm 1 mps 742 mmHg 46%
14:00 +28°C° 0 mm 2 mps 742 mmHg 47%
15:00 +28°C° 0 mm 2 mps 742 mmHg 49%
16:00 +28°C° 0 mm 2 mps 742 mmHg 50%
17:00 +26°C° 0 mm 2 mps 742 mmHg 58%
18:00 +25°C° 0 mm 2 mps 741 mmHg 66%
19:00 +23°C° 0 mm 2 mps 741 mmHg 75%
20:00 +21°C° 0 mm 2 mps 741 mmHg 77%
21:00 +20°C° 0 mm 2 mps 741 mmHg 80%
22:00 +19°C° 0 mm 2 mps 741 mmHg 83%
23:00 +19°C° 0 mm 2 mps 741 mmHg 82%

Day after tomorrow, 25 July, Sunday

Time Temperature Precipitation Wind Pressure Humidity
00:00 +19°C° 0 mm 2 mps 741 mmHg 81%
01:00 +19°C° 0 mm 2 mps 741 mmHg 80%
02:00 +19°C° 0 mm 2 mps 741 mmHg 79%
03:00 +19°C° 0 mm 2 mps 741 mmHg 77%
04:00 +19°C° 0 mm 2 mps 741 mmHg 75%
05:00 +20°C° 0 mm 1 mps 741 mmHg 72%
06:00 +21°C° 0 mm 1 mps 741 mmHg 70%
07:00 +22°C° 0 mm 1 mps 741 mmHg 68%
08:00 +24°C° 0 mm 1 mps 741 mmHg 62%
09:00 +26°C° 0 mm 2 mps 741 mmHg 56%
10:00 +28°C° 0 mm 2 mps 741 mmHg 50%
11:00 +29°C° 0 mm 2 mps 741 mmHg 47%
12:00 +30°C° 0 mm 2 mps 741 mmHg 44%
13:00 +31°C° 0 mm 2 mps 741 mmHg 41%
14:00 +29°C° 0 mm 2 mps 741 mmHg 46%
15:00 +27°C° 0 mm 2 mps 741 mmHg 51%
16:00 +25°C° 0 mm 1 mps 741 mmHg 56%
17:00 +25°C° 0 mm 2 mps 740 mmHg 59%
18:00 +24°C° 0 mm 2 mps 740 mmHg 63%
19:00 +23°C° 0 mm 2 mps 739 mmHg 66%
20:00 +21°C° 0.3 mm 2 mps 739 mmHg 71%
21:00 +20°C° 0.3 mm 2 mps 739 mmHg 76%
22:00 +19°C° 0.3 mm 2 mps 739 mmHg 81%
23:00 +19°C° 0.2 mm 2 mps 739 mmHg 83%

26 July, Monday

Time Temperature Precipitation Wind Pressure Humidity
00:00 +19°C° 0.2 mm 2 mps 739 mmHg 85%
01:00 +18°C° 0.2 mm 2 mps 739 mmHg 88%
02:00 +19°C° 0.1 mm 1 mps 740 mmHg 90%
03:00 +18°C° 0.1 mm 1 mps 740 mmHg 92%
04:00 +18°C° 0.1 mm 1 mps 740 mmHg 94%
05:00 +19°C° 0 mm 1 mps 740 mmHg 91%
06:00 +21°C° 0 mm 1 mps 740 mmHg 87%
07:00 +20°C° 0 mm 0 mps 740 mmHg 83%
08:00 +22°C° 0.2 mm 0 mps 741 mmHg 77%
09:00 +25°C° 0.2 mm 1 mps 741 mmHg 71%
10:00 +27°C° 0.2 mm 1 mps 741 mmHg 65%
11:00 +28°C° 0.1 mm 1 mps 741 mmHg 61%
12:00 +29°C° 0.1 mm 1 mps 741 mmHg 57%
13:00 +30°C° 0.1 mm 1 mps 741 mmHg 54%
14:00 +30°C° 0.5 mm 1 mps 740 mmHg 57%
15:00 +30°C° 0.5 mm 1 mps 740 mmHg 59%
16:00 +29°C° 0.5 mm 1 mps 740 mmHg 62%
17:00 +28°C° 0.2 mm 1 mps 740 mmHg 69%
18:00 +26°C° 0.2 mm 2 mps 740 mmHg 76%
19:00 +25°C° 0.2 mm 2 mps 740 mmHg 82%
20:00 +24°C° 0.4 mm 2 mps 740 mmHg 85%
21:00 +23°C° 0.4 mm 2 mps 740 mmHg 87%
22:00 +21°C° 0.4 mm 2 mps 740 mmHg 90%
23:00 +21°C° 0.5 mm 2 mps 740 mmHg 91%

27 July, Tuesday

Time Temperature Precipitation Wind Pressure Humidity
00:00 +21°C° 0.5 mm 1 mps 740 mmHg 92%
01:00 +21°C° 0.5 mm 1 mps 740 mmHg 92%
02:00 +20°C° 0.7 mm 2 mps 740 mmHg 94%
03:00 +20°C° 0.7 mm 2 mps 740 mmHg 96%
04:00 +19°C° 0.7 mm 2 mps 741 mmHg 97%
05:00 +20°C° 0.1 mm 3 mps 741 mmHg 95%
06:00 +21°C° 0.1 mm 3 mps 741 mmHg 92%
07:00 +21°C° 0.1 mm 4 mps 742 mmHg 90%
08:00 +23°C° 0 mm 4 mps 742 mmHg 83%
09:00 +25°C° 0 mm 3 mps 742 mmHg 76%
10:00 +26°C° 0 mm 3 mps 742 mmHg 69%
11:00 +27°C° 0 mm 2 mps 742 mmHg 64%
12:00 +28°C° 0 mm 2 mps 742 mmHg 59%
13:00 +29°C° 0 mm 2 mps 742 mmHg 55%
14:00 +29°C° 0 mm 1 mps 742 mmHg 53%
15:00 +29°C° 0 mm 1 mps 742 mmHg 52%
16:00 +28°C° 0 mm 0 mps 742 mmHg 51%
17:00 +28°C° 0 mm 1 mps 742 mmHg 58%
18:00 +27°C° 0 mm 1 mps 742 mmHg 65%
19:00 +25°C° 0 mm 1 mps 742 mmHg 72%
20:00 +24°C° 0 mm 1 mps 742 mmHg 76%
21:00 +23°C° 0 mm 1 mps 742 mmHg 79%
22:00 +22°C° 0 mm 1 mps 742 mmHg 82%
23:00 +22°C° 0 mm 1 mps 742 mmHg 83%

28 July, Wednesday

Time Temperature Precipitation Wind Pressure Humidity
00:00 +21°C° 0 mm 2 mps 742 mmHg 85%
01:00 +21°C° 0 mm 2 mps 742 mmHg 87%
02:00 +22°C° 0 mm 1 mps 741 mmHg 86%
03:00 +22°C° 0 mm 1 mps 741 mmHg 86%
04:00 +22°C° 0 mm 1 mps 741 mmHg 86%
05:00 +21°C° 0.5 mm 2 mps 741 mmHg 87%
06:00 +21°C° 0.5 mm 3 mps 741 mmHg 87%
07:00 +22°C° 0.5 mm 4 mps 742 mmHg 88%
08:00 +22°C° 0.1 mm 4 mps 742 mmHg 88%
09:00 +21°C° 0.1 mm 4 mps 742 mmHg 88%
10:00 +21°C° 0.1 mm 4 mps 743 mmHg 89%
11:00 +20°C° 0.2 mm 3 mps 743 mmHg 90%
12:00 +19°C° 0.2 mm 3 mps 743 mmHg 91%
13:00 +19°C° 0.2 mm 2 mps 744 mmHg 92%
14:00 +20°C° 0 mm 2 mps 744 mmHg 84%
15:00 +23°C° 0 mm 2 mps 744 mmHg 77%
16:00 +24°C° 0 mm 2 mps 744 mmHg 70%
17:00 +23°C° 0 mm 2 mps 744 mmHg 73%
18:00 +23°C° 0 mm 1 mps 743 mmHg 77%
19:00 +22°C° 0 mm 1 mps 743 mmHg 81%
20:00 +21°C° 0 mm 1 mps 744 mmHg 83%
21:00 +20°C° 0 mm 1 mps 744 mmHg 85%
22:00 +19°C° 0 mm 1 mps 744 mmHg 88%
23:00 +19°C° 0 mm 1 mps 744 mmHg 88%
Show more